TimeCST,TemperatureF,Dew PointF,Humidity,Sea Level PressureIn,VisibilityMPH,Wind Direction,Wind SpeedMPH,Gust SpeedMPH,PrecipitationIn,Events,Conditions,WindDirDegrees,DateUTC
12:53 AM,36.0,32.0,86,30.12,6.0,Calm,Calm,-,N/A,,Clear,0,2013-12-01 06:53:00
1:53 AM,36.0,33.1,89,30.11,4.0,Calm,Calm,-,N/A,,Clear,0,2013-12-01 07:53:00
2:53 AM,35.1,32.0,89,30.11,5.0,Calm,Calm,-,N/A,,Clear,0,2013-12-01 08:53:00
3:53 AM,37.0,35.1,93,30.10,7.0,North,5.8,-,N/A,,Clear,10,2013-12-01 09:53:00
4:53 AM,33.1,30.9,92,30.11,4.0,Calm,Calm,-,N/A,,Clear,0,2013-12-01 10:53:00
5:08 AM,32.0,30.9,96,30.09,1.2,Calm,Calm,-,N/A,,Clear,0,2013-12-01 11:08:00
5:19 AM,32.0,30.9,96,30.09,2.5,Calm,Calm,-,N/A,,Clear,0,2013-12-01 11:19:00
5:26 AM,34.0,32.0,92,30.09,5.0,North,3.5,-,N/A,,Clear,350,2013-12-01 11:26:00
5:53 AM,33.1,30.9,92,30.11,5.0,North,4.6,-,N/A,,Clear,360,2013-12-01 11:53:00
6:53 AM,33.1,32.0,96,30.12,3.0,Calm,Calm,-,N/A,,Clear,0,2013-12-01 12:53:00
6:56 AM,33.1,32.0,96,30.10,5.0,Calm,Calm,-,N/A,,Clear,0,2013-12-01 12:56:00
7:53 AM,33.1,30.0,89,30.12,0.8,ENE,3.5,-,N/A,,Clear,60,2013-12-01 13:53:00
7:57 AM,32.0,30.9,96,30.10,1.5,NE,3.5,-,N/A,,Clear,50,2013-12-01 13:57:00
8:03 AM,32.0,30.9,96,30.10,3.0,NE,3.5,-,N/A,,Clear,40,2013-12-01 14:03:00
8:53 AM,41.0,36.0,82,30.12,6.0,East,4.6,-,N/A,,Haze,80,2013-12-01 14:53:00
9:53 AM,44.1,36.0,73,30.12,7.0,ENE,5.8,-,N/A,,Clear,70,2013-12-01 15:53:00
10:53 AM,48.0,36.0,63,30.11,7.0,ENE,4.6,-,N/A,,Clear,70,2013-12-01 16:53:00
11:53 AM,50.0,37.0,61,30.08,9.0,Variable,3.5,-,N/A,,Clear,0,2013-12-01 17:53:00
12:53 PM,54.0,36.0,51,30.04,10.0,East,4.6,-,N/A,,Clear,100,2013-12-01 18:53:00
1:53 PM,54.0,36.0,51,30.00,10.0,ESE,4.6,-,N/A,,Clear,120,2013-12-01 19:53:00
2:53 PM,55.0,36.0,49,29.99,10.0,East,3.5,-,N/A,,Clear,100,2013-12-01 20:53:00
3:53 PM,55.0,36.0,49,29.97,10.0,East,3.5,-,N/A,,Clear,80,2013-12-01 21:53:00
4:53 PM,51.1,36.0,56,29.97,10.0,Calm,Calm,-,N/A,,Clear,0,2013-12-01 22:53:00
5:53 PM,45.0,34.0,65,29.96,10.0,ESE,4.6,-,N/A,,Clear,110,2013-12-01 23:53:00
6:53 PM,48.0,36.0,63,29.94,10.0,SE,5.8,-,N/A,,Clear,130,2013-12-02 00:53:00
7:53 PM,45.0,36.0,71,29.95,10.0,Calm,Calm,-,N/A,,Clear,0,2013-12-02 01:53:00
8:53 PM,45.0,36.0,71,29.93,9.0,ESE,3.5,-,N/A,,Clear,110,2013-12-02 02:53:00
9:53 PM,39.0,33.1,79,29.92,9.0,ESE,3.5,-,N/A,,Clear,110,2013-12-02 03:53:00
10:53 PM,39.9,36.0,86,29.89,7.0,SE,4.6,-,N/A,,Clear,140,2013-12-02 04:53:00
11:53 PM,37.0,35.1,93,29.88,5.0,SSE,4.6,-,N/A,,Clear,150,2013-12-02 05:53:00